GW5610 Weather Reports


time (UTC)temp
C
wind
direction
speed
KPH
gust
KPH
rain 1hr
cm
rain 24hr
cm
rain mn
cm
humidity
%
barometer
mb
20260504024031 11 266 1.6 3.2 0.00 0.00 0.00 35 1013.8
20260504023531 11 266 1.6 4.8 0.00 0.00 0.00 35 1013.7
20260504023031 11 266 1.6 4.8 0.00 0.00 0.00 36 1013.7
20260504022531 11 266 3.2 6.4 0.00 0.00 0.00 36 1013.9
20260504022249 11 266 3.2 6.4 0.00 0.00 0.00 36 1013.8
20260504021753 11 266 3.2 4.8 0.00 0.00 0.00 37 1013.7
20260504021031 11 266 3.2 6.4 0.00 0.00 0.00 37 1013.7
20260504020531 11 266 4.8 6.4 0.00 0.00 0.00 37 1013.6
20260504020257 11 266 4.8 6.4 0.00 0.00 0.00 37 1013.7
20260504015532 11 266 4.8 6.4 0.00 0.00 0.00 37 1013.6
20260504015032 11 266 4.8 8.0 0.00 0.00 0.00 36 1013.5
20260504014530 11 266 3.2 8.0 0.00 0.00 0.00 36 1013.4
20260504014030 11 266 4.8 8.0 0.00 0.00 0.00 36 1013.4
20260504013530 11 266 6.4 8.0 0.00 0.00 0.00 36 1013.4
20260504013030 11 266 6.4 8.0 0.00 0.00 0.00 36 1013.4
20260504012530 11 267 4.8 8.0 0.00 0.00 0.00 37 1013.3
20260504012029 11 266 4.8 8.0 0.00 0.00 0.00 37 1013.3
20260504011756 11 267 4.8 8.0 0.00 0.00 0.00 37 1013.2
20260504011031 11 267 6.4 8.0 0.00 0.00 0.00 37 1013.2
20260504010528 11 267 6.4 8.0 0.00 0.00 0.00 37 1013.1
20260504010028 11 267 6.4 9.7 0.00 0.00 0.00 37 1013.1
20260504005747 11 266 6.4 9.7 0.00 0.00 0.00 36 1013.1
20260504005256 11 266 6.4 9.7 0.00 0.00 0.00 36 1013.1
20260504004752 12 266 4.8 9.7 0.00 0.00 0.00 36 1013.0
20260504004027 12 262 4.8 8.0 0.00 0.00 0.00 36 1013.0
20260504003527 12 262 4.8 6.4 0.00 0.00 0.00 37 1013.0
20260504003025 12 262 3.2 8.0 0.00 0.00 0.00 36 1013.0
20260504002747 12 262 4.8 8.0 0.00 0.00 0.00 36 1013.0
20260504002023 12 260 6.4 11.3 0.00 0.00 0.00 36 1012.9
20260504001748 12 260 8.0 11.3 0.00 0.00 0.00 36 1012.9
20260504001023 12 261 8.0 12.9 0.00 0.00 0.00 35 1012.9
20260504000523 12 263 9.7 17.7 0.00 0.00 0.00 36 1012.9
20260504000245 12 266 11.3 17.7 0.00 0.00 0.00 35 1012.9
20260503235739 13 261 12.9 19.3 0.00 0.00 0.00 34 1013.0
20260503235010 13 270 12.9 19.3 0.00 0.00 0.00 33 1012.9
20260503234505 13 273 12.9 19.3 0.00 0.00 0.00 34 1012.9
20260503233958 13 265 12.9 19.3 0.00 0.00 0.00 33 1012.9
20260503233452 13 258 14.5 22.5 0.00 0.00 0.00 33 1012.6
20260503232947 13 279 14.5 22.5 0.00 0.00 0.00 32 1012.6
20260503232708 13 45 17.7 25.7 0.00 0.00 0.00 32 1012.8
20260503231935 14 247 19.3 27.4 0.00 0.00 0.00 31 1012.6
20260503231429 14 269 19.3 27.4 0.00 0.00 0.00 31 1012.5
20260503230922 14 245 14.5 27.4 0.00 0.00 0.00 30 1012.4
20260503230417 14 231 12.9 20.9 0.00 0.00 0.00 34 1012.5
20260503230401 14 224 14.5 22.5 0.00 0.00 0.00 30 1012.5
20260503225622 15 231 17.7 27.4 0.00 0.00 0.00 29 1012.4
20260503224859 15 277 19.3 27.4 0.00 0.00 0.00 29 1012.4
20260503224352 15 270 19.3 33.8 0.00 0.00 0.00 29 1012.4
20260503223847 15 45 17.7 33.8 0.00 0.00 0.00 29 1012.4
20260503223341 15 331 16.1 24.1 0.00 0.00 0.00 29 1012.3
20260503222838 15 45 14.5 29.0 0.00 0.00 0.00 30 1012.5
20260503222338 15 246 16.1 29.0 0.00 0.00 0.00 29 1012.5
20260503221839 15 250 16.1 29.0 0.00 0.00 0.00 31 1012.5
20260503221603 15 256 16.1 29.0 0.00 0.00 0.00 31 1012.5
20260503220839 15 276 16.1 33.8 0.00 0.00 0.00 29 1012.6
20260503220555 15 222 14.5 33.8 0.00 0.00 0.00 28 1012.6
20260503215839 15 264 16.1 30.6 0.00 0.00 0.00 29 1012.6
20260503215339 15 251 20.9 32.2 0.00 0.00 0.00 29 1012.5
20260503214839 15 269 16.1 32.2 0.00 0.00 0.00 29 1012.5
20260503214339 15 45 8.0 16.1 0.00 0.00 0.00 30 1012.5
20260503213839 15 273 8.0 19.3 0.00 0.00 0.00 34 1012.5
20260503213552 15 220 14.5 30.6 0.00 0.00 0.00 29 1012.6
20260503213432 15 206 9.7 19.3 0.00 0.00 0.00 30 1012.5
20260503212339 15 326 16.1 30.6 0.00 0.00 0.00 30 1012.8
20260503211839 15 261 14.5 25.7 0.00 0.00 0.00 32 1012.5
20260503211339 15 224 19.3 32.2 0.00 0.00 0.00 30 1012.8
20260503210839 15 45 20.9 32.2 0.00 0.00 0.00 32 1012.8
20260503210332 15 256 14.5 29.0 0.00 0.00 0.00 31 1012.9
20260503210047 15 273 14.5 27.4 0.00 0.00 0.00 29 1012.8
20260503205320 15 45 17.7 27.4 0.00 0.00 0.00 28 1013.0
20260503204815 15 256 17.7 30.6 0.00 0.00 0.00 29 1012.9
20260503204308 15 243 17.7 30.6 0.00 0.00 0.00 28 1012.9
20260503203802 15 308 16.1 29.0 0.00 0.00 0.00 28 1012.9
20260503203257 15 256 17.7 30.6 0.00 0.00 0.00 29 1013.0
20260503202750 15 326 24.1 41.8 0.00 0.00 0.00 27 1013.2
20260503202245 15 308 22.5 41.8 0.00 0.00 0.00 29 1013.1
20260503201745 15 255 16.1 30.6 0.00 0.00 0.00 27 1013.1
20260503201244 15 320 16.1 37.0 0.00 0.00 0.00 28 1013.2
20260503201008 16 237 16.1 37.0 0.00 0.00 0.00 29 1013.2
20260503200245 16 329 17.7 30.6 0.00 0.00 0.00 28 1013.3
20260503195744 15 45 19.3 30.6 0.00 0.00 0.00 28 1013.4
20260503195244 15 328 20.9 45.1 0.00 0.00 0.00 30 1013.4
20260503194744 14 45 25.7 45.1 0.00 0.00 0.00 30 1013.5
20260503194244 14 274 27.4 43.5 0.00 0.00 0.00 30 1013.5
20260503193744 14 264 25.7 43.5 0.00 0.00 0.00 30 1013.6
20260503193242 14 279 22.5 43.5 0.00 0.00 0.00 30 1013.7
20260503192742 14 256 19.3 43.5 0.00 0.00 0.00 30 1013.6
20260503192243 13 272 20.9 38.6 0.00 0.00 0.00 32 1013.7
20260503192006 14 250 25.7 40.2 0.00 0.00 0.00 32 1013.8
20260503191242 13 45 25.7 40.2 0.00 0.00 0.00 33 1013.8
20260503190743 13 274 25.7 38.6 0.00 0.00 0.00 33 1013.8
20260503190242 13 270 25.7 38.6 0.00 0.00 0.00 31 1013.9
20260503185743 13 231 24.1 40.2 0.00 0.00 0.00 36 1014.1
20260503185242 13 262 19.3 40.2 0.00 0.00 0.00 33 1014.2
20260503184737 13 276 17.7 33.8 0.00 0.00 0.00 34 1014.2
20260503184230 13 251 20.9 33.8 0.00 0.00 0.00 38 1014.3
20260503183725 13 235 22.5 40.2 0.00 0.00 0.00 33 1014.3
20260503183219 13 241 20.9 40.2 0.00 0.00 0.00 35 1014.4
20260503182718 13 256 19.3 35.4 0.00 0.00 0.00 37 1014.4
20260503182218 13 249 25.7 45.1 0.00 0.00 0.00 39 1014.6
20260503181718 12 263 27.4 45.1 0.00 0.00 0.00 37 1014.4
20260503181217 13 245 24.1 40.2 0.00 0.00 0.00 36 1014.6
20260503180939 13 265 20.9 40.2 0.00 0.00 0.00 37 1014.6
20260503180438 13 45 17.7 35.4 0.00 0.00 0.00 35 1014.6
20260503175717 13 336 16.1 25.7 0.00 0.00 0.00 36 1014.8
20260503175216 12 260 16.1 35.4 0.00 0.00 0.00 42 1014.8
20260503174716 12 245 19.3 35.4 0.00 0.00 0.00 37 1014.9
20260503174216 12 221 19.3 35.4 0.00 0.00 0.00 43 1014.8
20260503173716 12 258 20.9 32.2 0.00 0.00 0.00 40 1014.7
20260503173216 12 263 19.3 33.8 0.00 0.00 0.00 38 1014.8
20260503173205 12 272 14.5 33.8 0.00 0.00 0.00 38 1014.9
20260503172216 11 275 9.7 25.7 0.00 0.00 0.00 39 1014.9
20260503171716 11 266 8.0 25.7 0.00 0.00 0.00 47 1015.0
20260503171215 11 225 16.1 29.0 0.00 0.00 0.00 44 1015.1
20260503170929 11 265 12.9 29.0 0.00 0.00 0.00 39 1015.1
20260503170426 10 253 6.4 20.9 0.00 0.00 0.00 42 1015.2
20260503160126 11 241 9.7 19.3 0.00 0.00 0.00 41 1015.9
20260503150620 9 335 11.3 24.1 0.00 0.00 0.00 42 1016.5
20260503150119 8 19 12.9 24.1 0.00 0.00 0.00 44 1016.5
20260503131323 5 45 6.4 17.7 0.00 0.00 0.00 54 1016.1
20260503130555 5 346 6.4 14.5 0.00 0.00 0.00 53 1016.1
20260503110459 2 12 1.6 4.8 0.00 0.00 0.00 64 1015.2
20260503090234 3 344 3.2 20.9 0.00 0.00 0.00 61 1013.5
20260503081357 2 329 1.6 3.2 0.00 0.00 0.00 70 1013.0
20260503080628 2 329 1.6 4.8 0.00 0.00 0.00 70 1012.9
20260503080123 2 329 1.6 4.8 0.00 0.00 0.00 70 1012.9
20260503072614 3 329 6.4 14.5 0.00 0.00 0.00 63 1012.8
20260503072114 3 332 6.4 19.3 0.00 0.00 0.00 64 1012.6
20260503071614 3 334 8.0 19.3 0.00 0.00 0.00 64 1012.6
20260503071337 3 331 3.2 17.7 0.00 0.00 0.00 62 1012.4
20260503070615 3 347 0.0 11.3 0.00 0.00 0.00 65 1012.5
20260503070114 3 350 0.0 1.6 0.00 0.00 0.00 65 1012.5
20260503060112 4 350 0.0 4.8 0.00 0.00 0.00 60 1012.5
20260503055113 4 349 3.2 6.4 0.00 0.00 0.00 60 1012.5
20260503054613 5 350 3.2 6.4 0.00 0.00 0.00 60 1012.5
20260503054110 5 349 3.2 6.4 0.00 0.00 0.00 59 1012.6
20260503053610 5 349 3.2 6.4 0.00 0.00 0.00 59 1012.6
20260503053342 5 349 3.2 6.4 0.00 0.00 0.00 59 1012.6
20260503052608 5 349 1.6 8.0 0.00 0.00 0.00 59 1012.5
20260503052330 5 349 1.6 8.0 0.00 0.00 0.00 59 1012.5
20260503051608 5 348 1.6 4.8 0.00 0.00 0.00 58 1012.4
20260503051106 5 348 1.6 6.4 0.00 0.00 0.00 59 1012.4
20260503050606 5 348 3.2 8.0 0.00 0.00 0.00 58 1012.4
20260503050326 5 348 3.2 8.0 0.00 0.00 0.00 59 1012.3
20260503045605 5 346 1.6 6.4 0.00 0.00 0.00 58 1012.3
20260503045105 5 346 1.6 8.0 0.00 0.00 0.00 58 1012.3
20260503044559 5 346 0.0 8.0 0.00 0.00 0.00 57 1012.4
20260503044319 5 318 0.0 6.4 0.00 0.00 0.00 57 1012.3
20260503043547 5 318 1.6 6.4 0.00 0.00 0.00 57 1012.3
20260503043041 5 318 1.6 9.7 0.00 0.00 0.00 57 1012.3
20260503042535 5 318 1.6 9.7 0.00 0.00 0.00 56 1012.3
20260503042510 5 318 0.0 4.8 0.00 0.00 0.00 57 1012.3
20260503041742 5 318 1.6 9.7 0.00 0.00 0.00 56 1012.4
20260503041016 5 318 3.2 9.7 0.00 0.00 0.00 55 1012.3
20260503040511 5 317 3.2 9.7 0.00 0.00 0.00 55 1012.3
20260503040005 5 317 3.2 6.4 0.00 0.00 0.00 55 1012.3
20260503035500 5 317 1.6 6.4 0.00 0.00 0.00 55 1012.3
20260503034954 5 317 3.2 6.4 0.00 0.00 0.00 55 1012.3
20260503034449 5 316 1.6 4.8 0.00 0.00 0.00 54 1012.4
20260503033948 5 317 1.6 4.8 0.00 0.00 0.00 54 1012.3
20260503033447 6 317 1.6 0.0 0.00 0.00 0.00 54 1012.2
20260503032922 6 317 1.6 6.4 0.00 0.00 0.00 53 1012.2
20260503032416 6 317 1.6 4.8 0.00 0.00 0.00 53 1012.2
20260503031910 6 317 1.6 4.8 0.00 0.00 0.00 53 1012.2
20260503031403 6 317 1.6 4.8 0.00 0.00 0.00 52 1012.1
20260503030858 6 316 1.6 4.8 0.00 0.00 0.00 52 1012.1
20260503030352 6 316 0.0 4.8 0.00 0.00 0.00 51 1012.2
20260503025852 6 316 0.0 3.2 0.00 0.00 0.00 51 1012.2
20260503025613 6 316 1.6 11.3 0.00 0.00 0.00 51 1012.1
20260503024847 6 316 3.2 11.3 0.00 0.00 0.00 51 1012.1
20260503024604 6 316 1.6 9.7 0.00 0.00 0.00 51 1012.1